STARLINK-2659, 48467

Orbit data source: Space-Track

STARLINK-2659, 48467 is a payload satellite owned by SpaceX/Seattle (US) in LEO that was launched on Sun, 09 May 2021 UTC via an FALCON 9 launch vehicle from the Air Force Eastern Test Range (AFETR). Payload-class satellites include a variety of spacecraft equipped with specific instruments for various scientific and technological missions. These include communications satellites like Starlink; space stations such as the ISS; scientific satellites like the Hubble; Earth observation satellites from companies like Planet Labs, Umbra, and HawkEye 360; GPS; miniature CubeSats for education and research; and military/defense satellites.

Loading next visibility...
Identifier
48467, 2021-040AR
Orbit
LEO
Country
Flag of USUS
Related business
Manufacturer
SpaceX/Seattle
Mission
Operational Commercial Communications
Bus & Motor
STARLINK, Unknown motor
Mass
260 kg wet, ~248 kg dry
Launch date (UTC)
2021-05-09 (5 years ago)
Launch vehicle
FALCON 9
Launch site
Air Force Eastern Test Range (AFETR)
Object type
Payload
Rocket body
Debris
Shape & HBR
Box + 1 Pan, 10.1 m
Radar Cross Section
13.562 m², Large (>1 m²)

Expand to show TLE details & history
Last TLE update: 3 days ago

TLE from 3 days ago
0 STARLINK-2659
1 48467U 21040AR  26170.94120602 -.00000020  00000-0  11115-4 0  9992
2 48467  53.1613  75.2979 0001398 107.6144 252.5011 15.31706642282174
Epoch: 2026-06-19T22:35Z
TLE epoch observation values (Epoch: 2026-06-19T22:35:20.200Z)
Latitude
0.00006°
Longitude
-171.69918°
Altitude
471.909 km
Speed
7.631 km/s
True Right ascension
05h 01m 11s
True Declination
0° 00' 00"
Sunlit
Object was in daylight at epoch
Visualization orbit readout
Latitude
Unknown
Longitude
Unknown
Altitude
Unknown
Speed
Unknown
Apparent Right ascension
Unknown
Apparent Declination
Unknown
Sunlit
N/A
Visualization observer readout
Local Sidereal Time
00:36:51
Azimuth
Unknown
Elevation
Unknown
Doppler factor
Unknown
Orbital elements
Apogee altitude
471.934 km
Perigee altitude
470.019 km
Semi-major axis
6,849.114 km
Eccentricity
0.00014
Inclination
53.1613°
RAAN
75.2979°
Arg. of periapsis
107.6144°
True anomaly
252.48582°
Mean anomaly
252.5011°
Eccentric anomaly
252.49346°
Mean motion
3.82906 °/min
Orbital period
94.02 mins
BSTAR
0.000011115
Loading maneuver chart data...
Computing Atmospheric mass density...

Documentation

Showing up to 5 results
|